Location: Borgo
(42.3939°N, 9.2791°E)
Time: 20:43:49
(UTC+00:00)

CZ-4 R/B - Pass Details

Date: 27 February 2020
Orbit: 531 x 599 km, 97.8° (Epoch: 03 April)

Event Time Altitude Azimuth Distance (km) Brightness Sun altitude
Rises 17:38:35 0° 163° (SSE) 2,825 4.8 -6.2°
Reaches altitude 10° 17:40:45 10° 162° (SSE) 1,923 4.0 -6.6°
Maximum altitude 17:44:55 79° 77° (ENE) 605 1.4 -7.3°
Drops below altitude 10° 17:49:04 10° 350° (N) 1,907 4.2 -8.1°
Sets 17:51:13 0° 349° (N) 2,801 5.0 -8.5°
